Regional Weather Roundup
Issued by NWS

Home | Current Version | Previous Version | Graphics & Text | Print | Product List | Glossary On
Versions: 1 2 3 4 5 6 7 8 9 10 11 12 13 14 15 16 17 18 19 20 21 22 23 24 25 26 27 28 29 30 31 32 33 34 35 36 37 38 39 40 41 42 43 44 45 46 47 48 49 50
000
ASUS43 KLOT 121858
RWRIL

ILLINOIS REGIONAL WEATHER ROUNDUP
NATIONAL WEATHER SERVICE CHICAGO/ROMEOVILLE IL
200 PM CDT SAT JUL 12 2014

NOTE: "FAIR" INDICATES FEW OR NO CLOUDS BELOW 12,000 FEET WITH NO
SIGNIFICANT WEATHER AND/OR OBSTRUCTIONS TO VISIBILITY.

* THESE STATIONS ARE NOT UNDER NWS QUALITY CONTROL. THEY ALSO MAY NOT
  REPORT WEATHER SUCH AS PRECIPITATION OR FOG.

ILZ001-002-007-009-015-016-024-122000-
NORTHWEST ILLINOIS

CITY           SKY/WX    TMP DP  RH WIND       PRES   REMARKS
MOLINE         CLOUDY    83  73  72 S7        29.98F HX  89
$$

ILZ003-004-008-010-011-017-018-122000-
NORTH CENTRAL ILLINOIS

CITY           SKY/WX    TMP DP  RH WIND       PRES   REMARKS
ROCKFORD       NOT AVBL
$$

ILZ005-006-012>014-019>023-122000-
NORTHEAST ILLINOIS

CITY           SKY/WX    TMP DP  RH WIND       PRES   REMARKS
CHICAGO-OHARE  CLOUDY    78  68  71 SW21G28   30.00F HX  80
CHICAGO-MIDWAY CLOUDY    79  71  76 SW22G28   30.00F HX  82
AURORA         CLOUDY    77  69  76 S10       30.03F
WAUKEGAN       CLOUDY    76  69  79 SW21G29   29.97F
DUPAGE AIRPORT CLOUDY    77  69  76 SW20G26   30.02F
WHEELING       PTSUNNY   79  70  74 SW10G26   30.01F HX  82
NORTHERLY ISL    N/A     77  68  73 W13         N/A
$$

LMZ740>746-122000-
SOUTHERN LAKE MICHIGAN

STATION/POSITION SKY/WX   TEMP    WIND        PRES    VSBY  WAVE
                          AIR SEA DIR/SP/G                  HT/PER
                          (F)     (DEG/KT/KT) (MB)    (MI)  (FT/S)
SOUTHERN BUOY              65 63  140/ 14/ 16 1016.0F         1/ 3
WAUKEGAN HARBOR            75     230/ 19/ 29 1015.6F
HARRISON CRIB              72     210/ 24/ 31   N/A
BURNHAM HARBOR             76     210/ 10/ 18   N/A
CALUMET HARBOR             75     190/ 12/ 18 1017.0F
BURNS HARBOR               72     190/ 16/ 20 1016.6F
MICHIGAN CITY              71     160/ 16/ 22   N/A
$$

ILZ025>027-034>036-040-047-049-050-058-095>099-122000-
WEST-CENTRAL ILLINOIS

CITY           SKY/WX    TMP DP  RH WIND       PRES   REMARKS
$$

ILZ028>032-037-038-041>044-048-051>054-059>061-122000-
CENTRAL ILLINOIS

CITY           SKY/WX    TMP DP  RH WIND       PRES   REMARKS
PEORIA         NOT AVBL
SPRINGFIELD    CLOUDY    89  76  65 SW7       30.05F HX 100
TAYLORVILLE    NOT AVBL
$$

ILZ033-039-045-046-055>057-062-063-122000-
EAST-CENTRAL ILLINOIS

CITY           SKY/WX    TMP DP  RH WIND       PRES   REMARKS
CHAMPAIGN      CLOUDY    76  72  87 S15       30.08F
MATTOON        CLOUDY    81  73  76 S8        30.09F HX  86
$$

ILZ079-100>102-122000-
SOUTHWEST ILLINOIS

CITY           SKY/WX    TMP DP  RH WIND       PRES   REMARKS
ALTON          MOSUNNY   90  73  58 SW7       30.08F HX  98
CAHOKIA*       SUNNY     93  72  50 S7        30.07F HX 101
$$

ILZ064>066-069>071-074>076-080>082-084>086-088>090-092>094-122000-
SOUTH-CENTRAL ILLINOIS

CITY           SKY/WX    TMP DP  RH WIND       PRES   REMARKS
CARBONDALE     PTSUNNY   89  74  60 SW10      30.11F HX  98
$$

ILZ067-068-072-073-078-083-087-091-122000-
SOUTHEAST ILLINOIS

CITY           SKY/WX    TMP DP  RH WIND       PRES   REMARKS
$$

ABBREVIATIONS USED IN REMARKS
   TC - TEMPERATURE IN CELSIUS
  WCI - WIND CHILL INDEX
   HX - HEAT INDEX
  VSB - VISIBILITY
$$




USA.gov is the U.S. government's official web portal to all federal, state and local government web resources and services.